| time (UTC) | temp C | wind direction | speed KPH | gust KPH | rain 1hr cm | rain 24hr cm | rain mn cm | humidity % | barometer mb |
| 20260505034601 | 13 | 141 | 11.3 | 17.7 | 0.00 | 0.00 | 0.00 | 65 | 1015.0 |
| 20260505033046 | 13 | 154 | 11.3 | 17.7 | 0.00 | 0.00 | 0.00 | 66 | 1014.9 |
| 20260505031546 | 13 | 131 | 6.4 | 19.3 | 0.00 | 0.00 | 0.00 | 65 | 1014.9 |
| 20260505030048 | 13 | 121 | 11.3 | 19.3 | 0.00 | 0.00 | 0.00 | 64 | 1015.1 |
| 20260505024542 | 12 | 116 | 8.0 | 14.5 | 0.00 | 0.00 | 0.00 | 69 | 1015.2 |
| 20260505023045 | 12 | 330 | 12.9 | 16.1 | 0.00 | 0.00 | 0.00 | 69 | 1015.3 |
| 20260505021540 | 13 | 119 | 4.8 | 11.3 | 0.00 | 0.00 | 0.00 | 66 | 1015.5 |
| 20260505020052 | 13 | 135 | 8.0 | 14.5 | 0.00 | 0.00 | 0.00 | 67 | 1015.7 |
| 20260505014546 | 14 | 145 | 6.4 | 11.3 | 0.00 | 0.00 | 0.00 | 62 | 1015.8 |
| 20260505013044 | 15 | 330 | 8.0 | 11.3 | 0.00 | 0.00 | 0.00 | 60 | 1015.8 |
| 20260505011546 | 15 | 330 | 9.7 | 12.9 | 0.00 | 0.00 | 0.00 | 60 | 1015.8 |
| 20260505010057 | 15 | 113 | 9.7 | 12.9 | 0.00 | 0.00 | 0.00 | 60 | 1016.1 |
| 20260505004557 | 15 | 330 | 4.8 | 8.0 | 0.00 | 0.00 | 0.00 | 62 | 1016.3 |
| 20260505003045 | 14 | 330 | 6.4 | 9.7 | 0.00 | 0.00 | 0.00 | 66 | 1016.4 |
| 20260505001544 | 14 | 330 | 6.4 | 11.3 | 0.00 | 0.00 | 0.00 | 68 | 1016.6 |
| 20260505000042 | 15 | 56 | 8.0 | 11.3 | 0.00 | 0.00 | 0.00 | 69 | 1016.8 |
| 20260504234540 | 14 | 17 | 6.4 | 8.0 | 0.00 | 0.00 | 0.00 | 75 | 1017.0 |
| 20260504233047 | 14 | 22 | 8.0 | 9.7 | 0.00 | 0.00 | 0.00 | 79 | 1017.1 |
| 20260504231613 | 14 | 14 | 6.4 | 9.7 | 0.00 | 0.00 | 0.00 | 78 | 1017.1 |
| 20260504230044 | 14 | 10 | 6.4 | 9.7 | 0.00 | 0.00 | 0.00 | 80 | 1017.2 |
| 20260504224544 | 14 | 4 | 6.4 | 12.9 | 0.00 | 0.00 | 0.00 | 79 | 1017.3 |
| 20260504223039 | 14 | 8 | 9.7 | 12.9 | 0.00 | 0.00 | 0.00 | 78 | 1017.4 |
| 20260504221554 | 14 | 16 | 6.4 | 9.7 | 0.00 | 0.00 | 0.00 | 77 | 1017.4 |
| 20260504220043 | 14 | 19 | 6.4 | 8.0 | 0.00 | 0.00 | 0.00 | 74 | 1017.4 |
| 20260504214543 | 15 | 26 | 4.8 | 8.0 | 0.00 | 0.00 | 0.00 | 73 | 1017.5 |
| 20260504213043 | 15 | 0 | 0.0 | 4.8 | 0.00 | 0.00 | 0.00 | 72 | 1017.6 |
| 20260504211538 | 15 | 315 | 1.6 | 3.2 | 0.00 | 0.00 | 0.00 | 69 | 1017.6 |
| 20260504210049 | 15 | 315 | 1.6 | 4.8 | 0.00 | 0.00 | 0.00 | 68 | 1017.7 |
| 20260504204544 | 15 | 315 | 3.2 | 4.8 | 0.00 | 0.00 | 0.00 | 67 | 1017.8 |
| 20260504203044 | 15 | 282 | 1.6 | 4.8 | 0.00 | 0.00 | 0.00 | 69 | 1017.7 |
| 20260504201539 | 16 | 291 | 4.8 | 8.0 | 0.00 | 0.00 | 0.00 | 70 | 1017.6 |
| 20260504200046 | 16 | 272 | 3.2 | 6.4 | 0.00 | 0.00 | 0.00 | 63 | 1017.6 |
| 20260504194542 | 16 | 256 | 6.4 | 12.9 | 0.00 | 0.00 | 0.00 | 56 | 1017.6 |
| 20260504193047 | 17 | 223 | 3.2 | 11.3 | 0.00 | 0.00 | 0.00 | 51 | 1017.6 |
| 20260504191607 | 17 | 174 | 3.2 | 8.0 | 0.00 | 0.00 | 0.00 | 50 | 1017.5 |
| 20260504190040 | 17 | 204 | 4.8 | 16.1 | 0.00 | 0.00 | 0.00 | 48 | 1017.3 |
| 20260504184549 | 17 | 203 | 4.8 | 14.5 | 0.00 | 0.00 | 0.00 | 49 | 1017.2 |
| 20260504183045 | 17 | 197 | 1.6 | 6.4 | 0.00 | 0.00 | 0.00 | 52 | 1017.2 |
| 20260504181544 | 17 | 215 | 6.4 | 12.9 | 0.00 | 0.00 | 0.00 | 51 | 1017.0 |
| 20260504180043 | 18 | 247 | 8.0 | 12.9 | 0.00 | 0.00 | 0.00 | 47 | 1016.9 |
| 20260504174538 | 19 | 235 | 3.2 | 6.4 | 0.00 | 0.00 | 0.00 | 45 | 1016.9 |
| 20260504173045 | 20 | 245 | 3.2 | 9.7 | 0.00 | 0.00 | 0.00 | 48 | 1016.9 |
| 20260504171546 | 20 | 213 | 4.8 | 9.7 | 0.00 | 0.00 | 0.00 | 47 | 1017.0 |
| 20260504081553 | 22 | 229 | 3.2 | 11.3 | 0.00 | 0.00 | 0.00 | 34 | 1018.8 |
| 20260504044543 | 13 | 330 | 14.5 | 19.3 | 0.00 | 0.00 | 0.00 | 51 | 1017.6 |
| 20260504043044 | 13 | 330 | 12.9 | 17.7 | 0.00 | 0.00 | 0.00 | 51 | 1017.7 |
| 20260504041541 | 12 | 330 | 11.3 | 19.3 | 0.00 | 0.00 | 0.00 | 51 | 1017.6 |
| 20260504040041 | 12 | 330 | 14.5 | 20.9 | 0.00 | 0.00 | 0.00 | 52 | 1017.5 |